Theta_e
344 344 344 345 344 346 347 347 347 348 348 348 347 345 347 345 346 347 348 349 349 350 350 348 348 348 345 346 351 351 350 348 349 348 345 346 346 346 348 347 346 346 346
343 343 344 343 342 344 345 347 347 348 347 347 347 341 340 344 347 347 348 349 349 348 349 349 347 350 349 349 350 351 350 344 347 348 348 347 346 346 346 346 346 346 346
343 343 343 343 343 343 343 344 345 347 346 346 348 348 343 345 346 346 347 347 347 347 350 349 350 350 350 348 348 349 347 345 346 348 349 349 349 347 348 346 345 345 344
344 344 344 344 345 346 345 345 344 345 343 343 346 347 343 346 348 348 347 347 349 349 349 350 352 352 346 344 345 349 349 348 348 348 348 349 348 349 350 347 343 344 346
345 345 346 347 347 347 347 347 347 346 343 341 342 343 340 347 349 351 349 349 350 349 350 351 352 352 351 350 351 352 352 351 352 352 353 351 350 349 350 349 343 343 340
345 346 347 347 348 347 348 347 348 348 347 342 342 342 339 343 348 350 352 351 350 351 352 352 352 352 352 352 353 354 354 353 347 349 353 351 350 347 342 350 344 345 342
345 346 347 347 348 348 349 349 348 348 350 346 344 343 342 342 346 349 351 351 351 353 352 353 354 354 355 354 353 353 353 351 339 337 337 347 345 347 347 343 345 344 343
343 344 345 346 346 347 348 349 348 349 350 350 349 345 344 343 342 342 347 349 352 353 352 353 353 353 355 355 354 354 356 354 347 334 335 340 343 340 346 341 345 343 342
342 343 344 345 346 346 347 347 347 348 349 349 350 348 346 344 342 341 346 351 352 353 355 353 353 353 354 353 352 354 351 350 345 348 346 337 335 337 342 340 345 343 344
341 342 343 344 344 345 345 346 347 346 347 348 348 348 348 345 342 341 343 345 348 351 352 353 352 354 353 354 356 355 352 352 351 350 347 338 338 339 344 344 344 343 342
340 341 342 343 343 344 344 344 345 345 346 347 347 348 348 348 344 341 340 341 344 346 347 348 354 354 355 357 355 353 352 351 350 349 349 349 349 343 340 347 347 345 346
341 342 341 342 342 343 343 343 344 344 344 344 346 347 347 349 349 345 343 343 344 345 345 349 354 356 356 354 351 352 354 353 351 351 351 349 349 350 347 349 349 348 348
342 342 341 341 342 342 343 342 343 343 344 344 345 346 347 349 350 349 346 344 346 346 348 351 354 355 353 353 353 353 351 350 348 349 349 348 350 349 349 348 347 347 348
343 343 342 342 342 342 342 342 343 343 344 344 344 346 346 348 350 348 348 349 352 353 353 353 353 353 354 353 350 347 345 344 346 345 346 348 351 349 346 348 348 345 346
341 342 342 341 342 342 342 342 342 343 343 344 344 345 346 349 351 352 355 355 355 354 355 354 354 354 354 352 348 343 334 332 329 326 328 336 340 343 346 348 345 348 347
341 342 341 341 341 341 342 343 343 343 343 344 344 345 346 350 353 355 356 353 355 353 353 353 351 350 344 338 334 326 324 324 324 325 325 325 324 324 324 324 338 348 347
338 340 339 338 335 335 340 343 343 344 344 344 344 345 348 352 355 357 356 355 354 355 350 346 349 347 336 325 326 326 326 324 326 328 329 329 328 326 325 324 325 327 332
337 338 337 338 336 338 339 345 345 345 345 345 345 346 350 353 356 357 356 355 355 352 347 348 346 327 327 327 327 325 325 326 327 330 332 331 331 330 329 328 327 326 326
336 336 336 337 340 340 342 345 346 346 346 346 348 349 352 356 357 356 354 339 351 345 347 345 328 328 329 328 326 327 327 327 329 330 329 330 333 332 331 331 330 330 329
336 335 334 338 341 342 344 346 347 348 349 351 352 352 355 357 356 354 340 337 337 340 344 330 329 330 330 328 329 330 330 330 327 327 326 326 329 333 335 334 333 332 331
335 334 336 341 344 346 349 350 351 351 352 353 355 357 356 356 354 348 337 334 333 338 330 329 329 331 331 331 331 331 330 329 329 328 328 327 326 327 326 325 324 324 324
335 337 343 342 346 350 351 352 353 355 356 356 356 356 355 354 345 334 334 340 338 334 333 331 331 332 333 333 333 332 331 330 329 329 329 330 330 327 326 324 323 322 321
340 343 342 350 356 354 354 356 356 357 357 357 357 355 352 337 334 336 338 335 340 339 335 335 336 337 334 334 333 332 330 330 330 330 330 330 329 328 328 326 323 322 322
344 349 351 355 358 358 357 356 358 358 357 353 345 338 334 332 331 332 333 342 340 334 332 338 338 336 333 329 329 328 328 327 326 326 327 327 324 322 321 321 320 319 319
355 356 357 359 359 359 358 356 353 345 340 336 337 336 335 332 332 338 343 340 335 333 333 332 330 328 327 327 327 325 324 323 323 322 321 320 318 317 317 319 320 320 320
354 357 358 358 357 354 343 340 341 340 338 339 338 335 333 335 339 338 333 333 333 333 331 329 327 326 325 324 322 322 321 320 318 317 316 317 318 318 317 316 315 316 316
Wind_Speed
27 27 31 28 24 25 25 23 24 24 21 24 25 24 26 19 15 12 10 11 8 8 11 12 10 11 13 13 14 16 16 14 15 19 17 18 13 13 11 14 16 16 18
32 31 32 30 26 24 25 26 26 24 22 21 17 18 23 23 18 13 11 10 10 11 12 11 12 12 12 14 15 15 16 13 13 16 19 16 22 8 23 15 16 18 19
39 36 36 33 28 28 27 25 27 27 24 20 19 17 19 23 21 13 13 12 12 12 12 11 10 11 14 14 13 14 15 13 13 14 14 12 9 31 22 25 20 23 21
43 40 38 36 34 31 27 23 25 27 23 21 21 20 20 25 21 18 15 14 16 16 13 13 13 11 9 10 10 12 14 15 16 17 15 16 18 21 22 23 27 25 24
47 46 43 39 36 33 31 28 26 27 24 23 22 20 21 24 21 17 13 14 12 14 14 13 12 12 10 10 9 10 12 15 19 22 23 23 20 16 18 29 31 28 24
46 46 44 41 38 36 34 34 32 31 27 25 23 21 20 25 25 21 18 16 16 15 14 12 12 13 15 13 10 10 10 12 22 26 24 23 22 23 19 22 27 27 27
42 45 46 45 44 42 39 37 36 35 32 27 25 24 21 24 25 22 20 18 16 15 12 11 12 12 15 15 16 14 14 12 7 28 25 18 19 17 19 18 22 25 23
44 45 50 49 45 43 42 40 39 39 36 31 27 25 24 23 22 21 20 20 19 16 14 14 16 15 14 13 13 16 19 21 19 26 25 24 28 23 16 16 18 23 21
47 51 49 48 48 44 44 42 40 39 38 34 31 28 26 26 25 21 21 23 21 17 15 15 17 17 18 15 11 13 18 22 22 22 22 20 22 15 17 15 14 17 16
43 50 45 49 49 47 43 42 41 38 37 37 34 31 27 26 25 24 24 23 21 21 21 21 20 20 19 16 14 18 20 21 20 20 18 19 18 14 16 19 17 18 18
44 48 48 49 49 48 46 44 43 41 39 39 36 34 31 28 27 26 26 25 23 22 22 21 20 19 18 18 23 21 20 19 18 17 18 19 21 20 19 21 21 20 21
48 47 47 47 46 49 49 46 44 43 39 36 38 35 32 29 27 27 26 26 25 23 23 20 19 20 24 22 16 17 17 17 19 19 18 18 17 21 20 22 24 24 23
48 47 44 46 48 48 51 50 49 45 40 38 38 36 34 30 26 27 26 24 23 21 21 21 21 20 17 15 15 16 16 17 18 18 19 19 19 20 20 21 22 24 25
48 51 45 47 48 48 49 52 50 48 45 40 34 37 33 28 26 24 22 20 19 17 16 14 12 13 14 15 14 13 14 16 18 20 21 22 24 24 23 23 24 24 24
45 48 47 48 48 47 48 51 50 48 46 46 40 38 32 28 25 23 19 17 17 15 16 15 14 13 14 12 13 16 18 20 21 22 22 22 23 24 25 27 26 24 24
46 46 49 48 45 45 45 48 50 48 47 47 42 36 32 26 22 21 18 18 17 14 12 12 14 11 11 13 14 15 18 21 23 22 22 22 24 24 22 23 24 25 25
45 47 51 49 43 40 42 46 48 45 44 44 43 36 30 23 19 20 20 20 17 14 13 15 12 12 11 10 11 15 19 22 21 18 17 18 17 18 20 20 21 21 19
51 54 52 49 43 40 40 42 43 41 40 40 37 33 28 24 19 19 19 20 22 17 14 14 15 13 11 13 15 18 21 22 24 23 21 21 21 21 21 22 22 21 21
42 52 55 51 48 44 41 40 39 38 36 33 30 29 27 27 24 25 17 36 13 18 18 15 14 17 17 13 16 18 18 20 20 20 21 24 24 23 23 24 24 23 21
42 47 50 46 43 40 39 36 35 33 31 30 30 31 30 29 29 23 24 45 25 23 21 16 17 20 18 14 16 17 18 21 20 20 20 22 23 24 23 25 28 29 28
40 37 41 43 42 41 38 33 32 31 32 30 30 32 34 34 34 32 29 20 17 22 23 20 16 21 19 16 14 18 20 20 23 23 21 21 22 22 22 23 26 28 31
31 35 38 41 40 40 38 36 36 34 33 34 34 32 32 31 25 12 12 17 17 19 16 17 20 19 19 20 19 22 24 25 26 27 25 23 24 27 27 28 31 34 34
32 34 41 40 39 39 41 42 39 38 34 29 23 26 27 20 17 17 14 11 10 14 17 19 21 22 24 25 24 24 25 25 26 28 28 26 27 29 33 34 37 40 41
38 39 42 43 42 40 40 38 36 32 26 22 20 19 21 24 22 17 12 11 12 16 21 22 23 23 21 19 20 22 24 24 24 25 26 30 34 36 39 39 41 44 46
39 41 44 46 46 44 39 34 28 24 24 17 13 15 20 14 14 11 12 14 18 19 18 18 17 17 19 21 21 19 19 23 27 31 33 37 41 42 39 34 30 29 29
44 47 46 48 49 43 37 28 21 22 21 20 18 17 18 14 8 11 15 16 16 15 15 16 17 18 19 18 17 20 25 30 34 36 35 33 31 29 29 27 27 27 25
Wind_Direction
227 208 211 210 212 209 211 217 219 216 220 224 224 227 228 224 230 244 239 239 251 268 284 271 265 270 272 284 289 293 299 309 323 323 326 318 327 328 331 316 309 304 299
214 207 203 206 212 215 218 225 224 216 216 216 225 226 220 221 226 241 237 247 250 265 276 282 262 266 276 285 291 298 306 316 320 315 325 329 335 307 326 319 310 307 302
212 209 206 210 215 218 221 222 223 221 226 222 219 218 217 215 225 225 237 235 243 250 271 282 281 282 280 286 293 300 307 316 321 318 315 322 307 321 328 329 330 322 306
218 216 214 214 217 220 222 225 227 228 231 223 219 219 216 213 216 230 231 240 247 255 267 276 284 296 301 300 305 308 315 317 319 314 297 293 297 307 315 319 330 330 321
222 221 218 220 221 222 223 224 228 229 230 225 222 222 222 217 220 231 223 237 246 254 261 278 287 290 300 308 317 317 321 320 311 311 314 308 300 297 310 317 332 336 345
224 228 226 223 224 224 225 227 227 229 230 227 225 224 226 218 221 227 229 233 259 264 269 276 285 288 285 287 300 303 313 329 331 304 296 299 303 306 315 317 327 333 352
222 225 227 223 226 224 225 227 229 230 230 228 229 227 229 227 231 235 238 250 249 255 261 271 288 301 301 289 282 294 291 282 305 348 293 300 305 297 298 315 327 329 344
223 228 233 226 228 229 229 229 231 230 231 230 230 229 229 231 234 234 231 231 245 250 262 270 282 291 304 306 282 281 287 284 281 303 318 302 295 284 290 306 325 328 334
220 229 231 228 229 231 231 231 232 233 233 233 232 230 227 229 231 231 228 232 242 250 259 264 278 278 287 300 295 288 295 296 294 303 308 330 330 250 278 289 308 318 313
218 229 226 230 231 233 234 234 234 236 235 233 233 234 234 231 233 232 232 236 243 250 256 263 268 273 279 284 292 296 301 302 299 298 290 300 316 299 290 293 296 297 299
219 229 230 233 232 230 233 235 235 235 237 236 236 235 236 236 235 236 237 240 243 247 256 261 268 274 279 287 293 291 293 287 292 294 295 297 296 299 295 297 291 291 290
225 229 231 231 230 227 230 232 236 235 235 237 235 233 236 238 239 240 241 244 248 251 255 252 259 272 281 284 280 289 293 289 291 292 290 289 292 294 292 289 291 290 289
224 228 227 228 231 229 225 230 232 236 236 235 235 233 235 235 239 241 240 241 244 245 248 252 257 261 264 267 280 287 295 297 298 297 294 293 289 289 290 288 287 290 292
221 224 226 229 232 232 228 228 230 234 235 235 233 231 231 232 237 238 234 233 232 231 229 233 243 252 262 272 283 287 290 291 293 298 298 298 296 292 288 287 288 286 285
215 223 226 229 230 230 230 230 231 232 234 232 233 230 228 228 235 225 218 222 220 231 232 244 257 255 268 273 278 284 290 295 296 295 293 293 289 290 291 290 285 286 286
216 221 224 222 222 225 227 229 230 229 231 232 232 230 226 222 228 221 221 223 225 238 244 253 261 252 255 267 286 293 301 304 303 299 294 293 295 292 286 280 284 289 286
220 217 219 215 218 220 223 227 229 229 229 229 231 228 220 220 220 220 223 229 228 246 252 254 244 249 262 277 289 300 314 316 313 310 310 309 305 302 304 301 297 294 295
219 218 219 215 221 218 223 227 228 228 226 225 228 221 212 216 220 222 235 241 245 244 237 238 250 260 274 286 299 312 311 308 304 303 301 298 299 303 306 306 311 309 298
224 223 227 218 216 214 216 218 221 217 217 218 217 208 209 211 211 203 179 347 250 262 243 239 254 272 276 288 301 298 304 307 302 304 304 300 289 290 297 300 305 308 308
234 224 222 218 217 210 210 212 211 209 206 207 200 203 205 206 203 205 281 301 248 253 250 251 260 276 286 292 298 300 304 311 313 316 313 301 303 302 296 295 298 302 305
224 219 216 208 204 204 199 198 195 189 188 189 193 195 196 203 215 225 271 233 206 244 250 257 274 288 290 299 296 291 299 307 306 308 308 314 314 306 306 304 302 301 301
212 204 194 197 196 195 191 185 179 174 179 182 186 192 204 211 223 237 164 204 215 245 265 285 290 285 279 281 281 280 285 291 293 295 297 293 293 296 298 301 301 301 301
187 189 192 179 173 180 186 169 167 167 170 178 187 206 210 203 194 187 203 219 243 266 282 286 281 280 281 286 287 282 284 286 287 288 291 292 292 289 292 295 296 297 297
181 184 179 169 164 170 171 170 162 169 178 182 190 201 195 194 202 217 237 268 274 279 286 279 281 285 286 279 282 286 289 294 294 296 297 298 299 301 299 297 293 290 289
165 164 162 160 156 154 153 151 153 163 173 188 231 237 216 210 189 237 258 269 279 285 280 284 288 288 285 288 294 297 301 300 303 303 303 304 302 302 301 298 297 297 295
156 155 150 143 140 142 137 141 153 174 201 239 236 208 192 193 225 259 274 278 277 277 281 288 296 298 298 300 304 307 310 310 311 311 311 310 307 308 311 311 309 307 296